Tracking 21045 objects as of 3-Aug-2020
HD Live streaming from Space Station
objects crossing your sky now

COSMOS 516

Track COSMOS 516 now!
10-day predictions
COSMOS 516 is classified as:


NORAD ID: 6154
Int'l Code: 1972-066A
Perigee: 923.6 km
Apogee: 1,035.0 km
Inclination: 64.8 °
Period: 104.5 minutes
Semi major axis: 7350 km
RCS: 3.1093 m2 (large)
Launch date: August 21, 1972
Source: Commonwealth of Independent States (former USSR) (CIS)
Launch site: TYURATAM MISSILE AND SPACE COMPLEX (TTMTR)
aabbcc
Your satellite tracking list
Your tracking list is empty




NASA's NSSDC Master Catalog

Two Line Element Set (TLE):
1  6154U 72066A   20215.75394834 -.00000085 +00000-0 +35460-5 0  9997
2  6154 064.8102 324.3429 0075773 340.0045 019.8044 13.77679603412496
Source of the keplerian elements: AFSPC